Home   Weather   Madrid   Past weeks

Flag for Spain Past Weather in Madrid, Spain — Yesterday and Last 2 Weeks

Now
37 °F

Fog.


Feels Like: 37 °F
Forecast: 34 / 55 °F
Wind: No wind

Location: Madrid / Cuatro Vientos

Current Time: Dec 11, 2016 at 9:09:45 am

Latest Report: Dec 11, 2016 at 8:30 am


Visibility: 4 mi

Pressure: 30.36 "Hg (27.99 "Hg at 658m altitude)

Humidity: 100%

Dew Point: 37 °F

Location of MadridLocation

Past Weather in Madrid — Graph

°F

Madrid Temperature Yesterday

Maximum temperature yesterday: 59 °F (at 1:00 pm)
Minimum temperature yesterday: 43 °F (at 7:30 am)
Average temperature yesterday: 53 °F

High & Low Weather Summary for the Past Weeks

 TemperatureHumidityPressure
High59 °F (Nov 28, 4:00 pm)100% (Nov 26, 8:00 am)30.54 "Hg (Nov 26, 8:00 am)
Low37 °F (Dec 11, 7:30 am)48% (Nov 28, 4:00 pm)29.68 "Hg (Nov 26, 3:00 pm)
Average51 °F80%30.16 "Hg
* Reported Nov 26 8:00 am — Dec 11 8:00 am, Madrid, Weather by CustomWeather, © 2016

Note: Actual official high and low records may vary slightly from our data, if they occured in-between our weather recording intervals... More about our weather records

Advertising

Madrid Weather History for the Previous 24 Hours

Scroll right to see more
 ConditionsComfort  
Time TempWeatherWind HumidityBarometerVisibility
8:00 am
Sun, Dec 11
37 °FClear.No wind100%30.33 "Hg5 mi
7:30 am37 °FPassing clouds.No wind100%30.33 "Hg4 mi
7:00 am39 °FPassing clouds.No wind100%30.33 "Hg4 mi
8:00 pm
Sat, Dec 10
46 °FClear.1 mph93%30.36 "Hg10 mi
7:30 pm48 °FClear.No wind94%30.36 "Hg10 mi
7:00 pm48 °FClear.No wind94%30.36 "Hg10 mi
6:30 pm50 °FClear.1 mph82%30.36 "Hg10 mi
6:00 pm52 °FClear.1 mph82%30.36 "Hg10 mi
5:30 pm55 °FPassing clouds.2 mph67%30.36 "HgN/A
5:00 pm57 °FPassing clouds.3 mph63%30.36 "HgN/A
4:30 pm57 °FPassing clouds.5 mph63%30.36 "HgN/A
4:00 pm57 °FPassing clouds.5 mph67%30.36 "HgN/A
3:30 pm59 °FPassing clouds.3 mph63%30.36 "HgN/A
3:00 pm59 °FPassing clouds.3 mph63%30.36 "HgN/A
2:30 pm59 °FPassing clouds.3 mph63%30.36 "HgN/A
2:00 pm57 °FPassing clouds.5 mph72%30.39 "HgN/A
1:30 pm59 °FPassing clouds.3 mph68%30.39 "HgN/A
1:00 pm59 °FPassing clouds.2 mph68%30.42 "HgN/A
12:30 pm57 °FSunny.2 mph72%30.42 "Hg10 mi
12:00 pm55 °FSunny.3 mph72%30.42 "Hg10 mi
11:30 am57 °FPassing clouds.1 mph67%30.45 "HgN/A
11:00 am55 °FScattered clouds.2 mph77%30.45 "HgN/A
10:30 am55 °FSunny.No wind72%30.42 "Hg10 mi
10:00 am54 °FSunny.No wind82%30.42 "Hg10 mi
9:30 am48 °FFog.No wind100%30.42 "HgN/A
9:00 am45 °FFog.No wind100%30.42 "HgN/A
Weather by CustomWeather, © 2016

See weather overviewHow to use our weather pages